COSMOS 1375 DEB, 18560

Orbit data source: Space-Track

COSMOS 1375 DEB, 18560 is space debris in LEO originally from a launch on Sun, 06 Jun 1982 UTC launched from the Plesetsk Missile And Space Complex (PKMTR). Debris objects in space refer to the collection of defunct objects orbiting the Earth. Examples of debris include non-operational satellites, rocket bodies, and fragments generated from explosions, collisions, or faulty payload assembly.

Loading next visibility...
Identifier
18560, 1982-055BH
Orbit
LEO
Country
Flag of CISCIS
Related business
Manufacturer
Unknown
Mission
Spacecraft
Bus & Motor
Unknown
Mass
Unknown
Launch date (UTC)
1982-06-06 (44 years ago)
Launch vehicle
Unknown
Launch site
Plesetsk Missile And Space Complex (PKMTR)
Object type
Payload
Rocket body
Debris
Shape & HBR
Unknown shape, 0.1 m
Radar Cross Section
Small (<0.1 m²)

Expand to show TLE details & history
Last TLE update: 3 days ago

TLE from 3 days ago
0 COSMOS 1375 DEB
1 18560U 82055BH  26170.52623302  .00000065  00000-0  16377-3 0  9997
2 18560  65.8322  93.8869 0036727  34.5897 144.1473 13.70061873938710
Epoch: 2026-06-19T12:37Z
TLE epoch observation values (Epoch: 2026-06-19T12:37:46.532Z)
Latitude
0.83657°
Longitude
176.31558°
Altitude
1,023.223 km
Speed
7.33 km/s
True Right ascension
18h 14m 03s
True Declination
0° 49' 54"
Sunlit
Object was in full shadow at epoch
Visualization orbit readout
Latitude
Unknown
Longitude
Unknown
Altitude
Unknown
Speed
Unknown
Apparent Right ascension
Unknown
Apparent Declination
Unknown
Sunlit
N/A
Visualization observer readout
Local Sidereal Time
02:00:08
Azimuth
Unknown
Elevation
Unknown
Doppler factor
Unknown
Orbital elements
Apogee altitude
1,024.96 km
Perigee altitude
970.78 km
Semi-major axis
7,376.007 km
Eccentricity
0.00367
Inclination
65.8322°
RAAN
93.8869°
Arg. of periapsis
34.5897°
True anomaly
144.39288°
Mean anomaly
144.1473°
Eccentric anomaly
144.27018°
Mean motion
3.42619 °/min
Orbital period
105.07 mins
BSTAR
0.00016377
Loading maneuver chart data...
Computing Atmospheric mass density...
Loading historical data...
Loading historical data...
Loading historical data...
Loading historical data...
Loading historical data...
Loading historical data...
Loading historical data...

Documentation

Showing up to 5 results
|